ECMWFFLT1_sfc_gust_021.txt.gz
Wind_Gust
11 14 12 11 10 10 10 8 7 8 8 8 9 9 9 10 10 11 10 10 9 8 9 8 9 8 8 9 8 7 9 10 11 12 12 14 13 13 11 13 12 10 8 9 9 12 16 20 17 17 17 17 19 19 18 18 18 17 16 16 17 17 17
13 13 12 11 11 9 10 8 7 9 10 8 8 8 9 9 9 10 11 11 10 9 8 8 8 8 8 9 9 10 11 11 10 9 12 14 13 16 15 13 13 12 10 8 7 8 16 19 18 18 20 18 20 18 17 17 18 17 17 17 18 18 17
13 12 11 12 10 8 10 8 7 8 9 9 8 9 9 9 8 9 8 9 9 10 9 9 9 8 8 9 8 8 8 10 10 11 11 13 12 14 12 13 13 13 13 13 11 12 11 10 18 20 17 17 21 18 14 17 17 17 18 18 18 19 18
14 14 14 12 11 9 10 8 7 8 8 9 8 8 8 9 8 8 8 8 8 9 10 10 8 9 9 9 8 9 8 8 10 12 13 11 11 12 11 11 13 13 12 15 15 14 13 14 18 17 15 18 21 19 16 15 17 19 19 17 18 19 17
15 14 15 15 13 12 10 10 8 9 10 9 7 8 8 8 8 9 8 9 9 8 8 7 8 8 9 9 9 9 10 10 10 12 13 14 12 13 10 10 10 10 11 12 12 11 13 16 15 18 18 18 17 18 16 15 17 19 20 20 19 18 18
12 12 12 13 11 12 10 9 9 10 10 10 8 9 8 8 8 9 8 8 9 8 8 9 9 9 9 9 10 10 11 11 11 12 13 12 13 14 14 10 12 13 13 10 10 11 11 12 15 17 15 12 17 16 14 11 15 18 19 19 19 19 19
11 11 12 13 11 10 10 9 9 10 11 10 9 8 8 8 9 9 9 9 10 9 8 9 9 8 8 11 10 11 11 10 11 13 14 12 12 12 11 13 12 13 12 9 11 12 13 13 16 17 18 14 14 17 15 13 11 13 17 18 18 18 18
13 13 13 14 14 11 9 9 7 8 11 10 9 8 8 9 9 9 10 10 10 9 9 8 8 8 8 10 11 11 11 10 11 12 13 13 13 12 11 13 13 13 11 11 11 12 11 11 13 17 20 22 16 13 14 14 16 17 13 16 17 17 17
9 10 11 10 11 11 11 10 9 8 11 11 10 9 9 9 10 10 11 11 10 9 9 9 8 9 8 10 10 10 11 8 11 12 12 13 13 13 13 12 14 15 12 13 13 12 13 12 11 10 11 15 20 18 13 13 12 16 13 13 16 17 16
12 11 12 12 13 11 10 8 8 9 11 11 11 9 10 10 10 9 10 11 10 10 10 10 10 9 8 9 10 10 11 9 10 12 11 13 13 13 13 13 15 16 14 12 13 12 12 11 12 10 8 9 10 17 16 13 11 11 13 13 11 15 15
11 11 10 12 12 13 11 10 8 10 11 12 12 10 11 11 10 9 10 11 10 10 11 11 11 10 9 10 10 10 10 9 11 10 11 12 12 13 13 14 14 15 11 12 12 10 11 11 11 12 12 10 8 11 11 12 12 8 10 10 12 13 13
11 12 10 11 11 12 13 13 12 10 10 11 14 12 11 12 11 10 10 11 10 11 10 11 10 10 9 11 10 11 9 9 11 11 10 11 10 11 12 13 12 13 10 11 10 10 10 10 11 12 12 12 13 11 12 11 14 10 9 10 11 12 12
11 13 13 13 12 12 13 14 14 11 12 10 10 12 12 12 11 11 10 11 11 10 10 10 9 10 10 10 10 11 10 10 12 12 11 9 10 10 12 12 11 11 10 11 11 10 10 9 9 11 12 12 12 11 10 10 12 13 9 10 10 11 11
12 11 11 12 10 10 10 9 10 11 12 10 10 11 13 13 13 12 12 12 12 11 10 10 9 9 9 10 10 9 9 9 12 11 11 10 10 10 13 13 12 10 8 10 11 11 12 12 11 11 11 12 12 10 10 10 13 14 12 8 8 10 10
11 11 11 11 8 9 11 11 9 8 11 12 10 11 12 11 12 13 13 13 13 12 12 11 10 9 10 10 10 8 7 8 9 10 9 11 10 9 10 12 13 11 10 13 11 14 15 14 14 14 13 11 12 11 8 10 12 10 12 11 10 9 10
13 12 12 11 10 9 10 11 12 10 10 12 11 10 11 11 11 12 12 11 12 12 12 12 10 9 9 8 9 8 8 8 9 10 10 10 11 9 10 10 10 10 8 12 11 11 11 12 12 14 13 12 13 11 11 10 10 12 11 12 8 10 9
12 12 12 11 11 10 11 11 13 13 11 12 14 11 11 13 14 13 13 12 11 11 11 11 11 11 11 10 9 8 7 7 7 8 10 11 11 10 10 9 9 10 10 11 12 12 11 11 11 13 13 12 13 13 11 9 9 10 10 11 9 8 9
11 11 11 10 10 11 12 12 13 15 14 13 14 15 13 12 13 14 13 14 13 12 10 10 10 11 10 10 10 10 9 8 8 8 8 8 6 11 11 11 11 11 11 11 10 11 12 11 13 13 13 13 13 12 10 10 11 11 11 11 12 9 7
14 12 11 10 12 12 12 13 14 14 15 15 14 15 17 15 13 13 13 12 13 13 13 11 10 10 10 9 9 9 9 10 10 10 10 9 9 9 11 11 10 12 12 12 11 10 11 12 12 12 13 12 13 12 10 10 10 11 11 11 9 10 8
13 12 12 12 12 14 14 14 15 16 16 17 16 15 15 16 14 13 13 13 14 14 14 12 10 10 11 11 10 10 9 9 10 10 10 11 11 9 9 10 8 8 8 10 10 12 13 12 12 11 11 11 11 11 10 9 9 10 9 10 9 7 7
12 12 11 12 14 15 15 16 17 17 17 18 17 17 16 14 14 14 16 14 13 13 13 12 11 10 10 9 8 8 9 9 9 10 11 13 12 14 15 15 14 15 18 19 18 16 14 14 11 11 11 11 11 10 10 10 9 8 8 7 7 7 6
11 12 13 14 15 15 16 16 17 18 18 19 16 16 15 14 15 15 14 12 11 10 9 8 7 7 8 8 8 10 10 11 11 12 13 13 14 16 17 16 16 17 17 14 13 10 11 10 15 14 12 13 13 12 10 9 8 7 7 6 6 6 8
12 11 12 14 15 15 15 14 14 15 15 13 10 12 11 10 11 15 16 13 10 8 8 7 6 9 9 10 10 11 11 12 13 13 13 13 13 15 16 16 16 11 9 11 11 10 10 11 10 11 15 14 15 12 11 10 8 6 6 7 8 10 12
9 11 10 10 10 12 12 11 11 11 12 12 11 9 11 13 12 13 16 15 14 11 9 8 8 11 12 13 12 11 12 13 12 13 14 14 15 14 15 16 14 11 12 10 15 12 12 11 7 7 11 7 4 11 12 10 8 7 6 6 5 6 8
9 9 8 9 8 9 9 11 13 13 13 14 14 13 14 12 12 13 13 14 13 13 13 11 11 13 13 10 7 12 14 14 13 13 14 14 14 14 12 10 10 9 11 12 14 16 11 7 7 11 12 10 10 9 7 7 9 9 8 7 7 7 10
9 9 10 10 10 11 11 11 12 13 14 14 13 16 15 13 13 11 11 14 14 15 17 14 15 13 11 9 8 10 13 14 13 13 13 13 12 12 11 10 9 9 9 7 11 13 16 16 11 14 14 14 12 10 10 11 9 7 8 8 8 8 9
10 8 8 9 9 11 12 13 12 12 12 12 15 17 18 16 14 15 14 13 11 10 12 13 13 12 10 8 8 8 12 13 12 11 11 10 10 10 10 10 10 7 8 10 10 13 16 18 19 18 15 13 13 12 9 9 8 7 5 7 8 9 7
12 10 9 8 8 9 11 10 10 11 12 15 17 18 19 19 18 15 15 13 11 9 12 9 7 6 5 6 7 7 8 7 7 6 6 7 7 7 7 8 8 6 8 8 9 12 17 18 17 16 15 13 13 12 12 11 10 9 9 8 8 8 8
11 10 10 10 11 11 12 13 14 13 11 14 14 12 10 12 13 12 10 10 9 11 12 9 8 8 9 10 11 9 10 9 9 9 10 9 9 8 7 6 7 8 9 10 9 11 12 18 17 16 15 14 13 13 13 8 8 10 12 11 10 9 9
10 10 9 10 12 13 12 14 13 13 15 16 16 16 15 13 12 12 12 12 13 12 12 8 10 11 11 12 8 11 11 11 11 11 10 9 10 10 9 9 10 12 12 13 9 12 11 10 15 15 14 13 12 11 11 10 8 7 8 8 7 7 6
8 8 8 11 11 11 10 9 11 12 13 13 13 13 12 13 12 13 14 13 14 13 11 9 9 11 13 11 8 13 12 13 12 11 11 10 11 13 15 12 8 14 15 14 9 11 10 12 14 14 14 14 12 11 11 9 9 9 4 3 2 2 1
10 9 9 9 7 8 9 9 7 8 8 9 11 12 12 14 13 12 10 10 5 11 12 9 8 11 10 10 11 13 15 15 14 12 13 13 11 14 15 14 14 13 14 13 11 9 8 9 13 13 13 12 11 11 10 9 8 9 9 9 9 9 11
9 10 11 9 8 8 7 8 9 9 8 9 11 10 10 11 13 11 10 10 9 9 11 11 11 9 9 10 8 13 15 16 16 15 14 16 16 14 15 16 15 12 14 14 13 13 11 9 13 12 10 10 10 11 11 9 9 8 8 7 8 8 10
10 9 9 10 9 9 9 10 9 10 12 11 11 11 10 11 13 12 11 10 10 10 9 11 11 8 9 8 8 8 13 14 16 16 16 15 16 16 15 15 15 11 15 15 15 14 13 11 8 13 10 11 11 12 6 10 11 3 8 8 10 11 12
9 7 6 7 9 11 11 10 9 9 10 12 13 12 10 11 13 13 11 10 10 10 8 6 11 8 9 9 7 3 10 13 14 17 15 15 15 15 15 15 15 11 14 15 15 14 13 12 10 15 16 9 8 5 9 9 7 7 8 10 11 13 13
10 8 7 7 8 9 8 10 10 11 13 12 13 12 12 12 14 14 12 10 9 9 9 9 5 11 9 11 10 7 9 13 7 14 18 17 15 16 15 16 15 10 13 14 14 14 13 13 11 15 10 10 9 6 4 8 8 9 10 12 13 14 14
10 11 9 8 7 8 8 9 10 10 10 14 14 14 13 13 14 15 14 11 9 9 9 11 5 5 11 12 13 15 13 11 9 10 15 17 16 17 18 17 16 13 14 15 15 15 13 11 16 11 10 9 6 3 9 8 9 10 11 12 13 14 15

ECMWFFLT1_sfc_gust_024.txt.gz
Wind_Gust
13 15 14 13 11 12 12 11 11 10 9 10 9 9 9 10 9 9 9 8 8 9 9 8 8 9 9 11 10 9 10 12 15 15 18 15 16 14 12 12 12 12 12 10 12 15 16 20 17 16 16 15 16 16 16 16 16 15 14 13 15 16 16
17 17 15 14 14 13 13 11 10 11 10 7 8 9 8 10 9 8 8 8 8 9 9 10 9 10 10 10 11 10 10 11 12 11 16 14 13 14 14 13 13 13 14 13 12 10 18 18 18 17 17 16 16 16 15 15 16 15 15 15 16 17 15
16 17 14 15 14 13 14 13 12 11 11 9 8 8 8 9 9 9 8 8 9 10 10 11 10 9 8 9 9 9 10 11 11 13 13 14 12 12 13 12 13 14 14 15 16 15 15 12 17 20 18 16 17 16 13 13 14 15 15 15 15 17 17
16 16 16 16 15 14 15 14 12 11 9 10 9 9 8 9 9 9 8 9 10 10 10 10 9 9 9 9 9 10 11 11 12 12 12 12 12 15 13 14 13 14 14 15 16 16 15 14 18 19 17 16 19 17 13 13 13 15 16 15 16 16 16
17 17 16 16 16 16 16 15 12 11 10 10 9 10 9 9 8 9 9 9 11 10 10 10 9 10 9 9 10 9 11 10 12 14 14 14 14 15 12 10 10 11 11 11 13 13 13 14 15 17 17 19 18 18 18 14 15 16 16 16 17 17 16
15 15 16 15 14 15 16 15 13 12 11 11 10 11 10 8 8 9 8 9 11 11 10 10 11 10 9 9 11 10 12 12 12 12 14 14 15 14 14 12 13 13 12 12 11 11 11 12 14 17 16 15 16 17 18 15 16 15 16 16 17 18 17
15 14 15 16 15 14 14 16 14 13 12 10 11 10 11 9 11 11 10 12 12 12 12 11 11 10 9 11 11 12 12 12 13 13 14 13 13 12 12 13 11 13 12 11 10 10 11 12 14 14 14 14 14 16 16 16 15 17 16 17 16 17 17
14 16 15 15 15 14 13 13 14 12 13 13 12 12 10 11 11 12 12 12 12 12 11 11 11 11 9 10 12 11 11 12 13 13 13 13 13 12 10 11 12 12 11 11 9 8 10 9 11 14 15 17 15 12 13 14 15 14 15 16 16 16 16
13 14 14 14 14 14 13 12 13 11 13 13 13 12 11 11 13 13 13 13 12 12 11 11 10 11 10 10 12 11 11 11 11 11 11 12 12 11 11 11 13 14 12 12 11 10 10 9 10 12 13 12 15 16 13 14 12 14 10 14 17 16 15
13 13 14 14 15 15 14 13 13 12 13 13 14 13 12 12 13 13 14 13 13 12 11 10 10 10 9 10 12 11 10 10 10 11 10 11 11 11 12 11 13 14 13 12 13 12 11 9 10 9 10 10 9 12 16 15 12 13 14 12 12 16 13
14 14 14 16 15 15 14 14 13 14 14 14 15 13 13 14 14 13 14 14 13 13 12 11 11 11 10 11 11 11 11 10 11 11 10 11 11 11 12 13 13 15 13 12 13 11 11 11 11 10 9 8 7 8 10 13 14 10 14 12 13 15 13
13 14 14 15 16 15 15 14 14 14 14 15 16 15 15 15 14 14 14 14 14 14 13 13 12 12 11 13 13 13 11 11 12 12 12 12 12 12 12 13 12 13 12 12 11 11 11 11 12 13 12 12 12 10 9 14 16 12 10 13 12 12 12
16 16 15 15 15 15 16 15 16 14 15 16 16 15 15 15 15 15 14 15 15 15 15 14 13 13 12 13 13 14 14 13 15 14 14 12 14 13 13 13 12 13 12 12 12 11 11 11 10 13 13 13 13 10 8 10 14 16 10 11 11 12 11
14 14 13 13 14 14 14 15 16 14 15 14 15 16 15 15 16 15 16 16 16 15 14 13 13 12 12 13 13 13 14 14 15 14 14 12 12 12 12 14 13 11 9 10 12 11 12 12 11 10 11 11 12 10 9 11 14 15 12 8 8 11 10
13 13 13 13 13 16 16 15 14 13 13 13 15 16 17 15 14 15 15 16 15 15 15 15 13 12 14 13 12 10 11 12 12 13 11 12 11 10 10 11 13 11 10 11 9 13 14 13 12 13 12 10 12 11 9 10 11 12 13 12 10 11 12
13 12 13 12 13 15 15 14 15 15 13 13 13 14 15 16 17 16 16 15 15 15 15 15 13 13 13 13 13 11 9 10 10 11 11 11 12 11 10 10 11 10 9 10 8 9 9 9 10 13 11 11 12 10 10 10 8 12 12 12 10 12 9
11 12 12 13 14 14 16 15 15 16 16 13 15 13 14 16 17 17 17 17 16 15 15 15 15 14 15 14 13 14 12 10 10 10 10 11 12 11 10 9 9 10 9 10 9 9 8 8 8 11 11 11 11 11 9 8 8 8 9 11 9 9 11
11 12 13 13 14 15 16 17 15 17 16 17 15 16 15 15 16 17 17 18 18 17 16 16 15 14 13 12 12 12 12 12 10 10 9 8 4 9 10 9 10 10 9 9 9 10 9 9 10 10 10 11 11 11 9 7 8 7 7 9 10 9 7
12 13 14 15 14 15 16 16 17 16 17 18 18 16 17 16 16 17 17 17 18 18 17 16 16 16 15 14 13 12 11 12 12 12 12 11 11 10 9 9 9 10 10 10 10 9 8 10 9 9 9 9 12 10 9 9 8 8 7 9 8 11 8
12 13 14 15 15 17 16 15 17 17 17 17 18 18 17 17 16 17 18 18 18 18 18 17 16 15 15 15 14 13 12 12 11 11 11 12 12 13 13 13 11 11 11 9 9 10 9 10 10 9 9 9 9 10 9 9 9 8 7 8 9 8 9
11 14 14 15 17 17 17 18 17 16 17 17 18 19 19 19 18 18 18 18 18 17 16 16 16 16 14 14 13 13 13 12 12 12 12 13 13 14 15 16 16 16 16 17 17 16 14 14 12 12 10 10 9 10 9 9 9 9 9 8 9 9 7
10 12 14 15 16 17 17 18 18 19 19 18 18 19 20 22 22 21 20 18 17 15 14 14 14 15 15 14 13 12 12 12 12 13 13 14 14 15 15 15 16 17 17 8 6 7 7 7 12 12 11 10 10 10 9 9 9 10 12 11 12 11 14
10 11 12 13 14 14 16 17 18 19 19 20 19 19 19 19 21 21 21 19 17 15 14 14 9 8 4 10 10 11 12 13 14 14 14 15 15 15 15 16 16 10 8 9 7 7 7 5 5 9 9 13 13 11 10 10 11 11 12 14 12 13 15
8 10 11 12 12 14 15 14 16 18 18 18 17 17 18 19 20 20 20 18 18 16 15 13 15 14 12 7 8 9 11 12 12 13 15 15 15 16 16 17 16 14 11 7 13 11 8 6 8 4 6 9 8 10 10 10 10 8 12 12 11 12 12
10 10 11 12 12 14 14 15 16 17 17 17 17 17 18 20 21 20 21 21 19 18 16 10 15 15 14 13 8 10 9 11 11 13 14 15 16 17 16 15 13 13 15 15 16 15 11 6 5 6 7 7 7 8 8 11 10 9 8 12 12 12 12
11 11 12 13 12 13 14 15 16 17 18 17 18 20 21 21 22 22 22 22 22 19 15 14 17 14 15 16 14 11 11 10 12 13 13 15 16 19 17 12 13 12 14 10 14 14 16 15 8 10 11 11 11 11 10 11 11 14 11 11 11 12 12
10 11 12 13 13 14 14 14 13 14 16 17 18 19 19 21 21 23 23 23 23 20 21 14 15 14 15 17 15 10 14 13 14 15 15 16 17 16 12 12 13 12 13 13 13 14 15 17 18 17 17 15 14 11 8 8 6 6 7 10 10 12 10
9 10 11 12 14 15 16 15 16 16 17 16 17 18 19 19 20 21 21 21 21 21 18 13 16 11 10 13 13 7 12 11 14 16 17 13 13 11 10 9 9 10 11 11 12 12 16 18 19 18 17 16 14 13 11 10 10 9 8 7 8 9 9
12 11 11 11 13 14 15 17 17 16 16 16 16 17 18 19 19 19 19 18 18 19 16 12 14 13 12 13 17 14 15 15 14 13 11 11 11 11 10 9 10 11 11 12 9 9 11 19 19 18 18 16 15 14 14 8 8 12 15 14 12 12 12
12 13 12 13 13 12 13 14 14 15 16 17 18 18 18 19 19 18 17 16 18 18 15 9 7 11 12 14 13 19 18 18 16 14 12 11 12 12 11 10 11 13 13 14 9 8 10 11 18 18 17 15 14 13 14 13 9 7 7 8 7 6 6
13 12 13 14 14 13 13 13 13 13 14 14 15 16 16 18 18 17 17 17 18 17 14 13 12 12 15 18 15 19 19 19 17 16 15 12 13 15 16 16 9 13 15 17 8 9 7 12 16 16 15 15 14 13 14 13 13 12 7 4 3 3 6
14 14 14 14 14 16 15 15 14 13 14 14 13 13 14 15 15 15 16 17 5 15 15 12 11 11 13 16 14 16 16 18 17 17 17 16 15 15 15 14 16 14 14 14 9 6 5 9 13 12 13 12 12 12 12 12 11 12 13 13 15 16 16
15 15 15 14 14 15 16 16 14 15 15 16 15 15 16 15 15 15 16 18 20 19 17 15 14 11 12 11 8 13 16 16 17 17 16 18 17 16 17 17 16 13 13 11 10 9 9 12 9 12 11 12 13 11 11 10 11 11 9 11 12 12 15
15 16 16 15 14 14 14 17 15 16 16 16 13 14 14 15 16 15 16 17 19 18 18 18 15 11 11 9 5 7 17 15 17 17 18 18 18 18 18 17 17 11 11 12 12 12 12 13 11 10 11 13 16 14 7 10 13 5 12 12 13 15 15
16 16 16 16 14 15 14 16 17 17 18 16 15 15 16 17 18 17 16 14 14 14 11 8 18 9 8 8 7 5 12 17 15 19 18 18 18 17 17 18 18 11 10 13 13 13 13 13 12 16 18 10 8 7 8 8 9 10 12 13 13 14 15
18 16 16 15 16 15 14 16 15 18 18 17 17 19 20 20 19 20 19 19 17 15 16 14 8 13 7 9 6 4 5 11 4 15 16 17 17 19 18 19 18 11 12 13 13 14 14 14 11 16 10 9 7 3 8 9 9 12 12 13 14 15 15
19 18 17 17 17 16 15 14 19 20 21 21 21 21 22 23 24 22 19 17 16 17 16 16 8 8 13 8 8 7 9 10 4 11 15 17 17 20 21 20 18 13 14 14 13 12 12 11 17 10 8 7 5 7 12 9 12 10 12 13 14 14 14

ECMWFFLT1_sfc_gust_030.txt.gz
Wind_Gust
7 9 7 7 6 6 5 6 6 4 6 8 6 9 8 10 6 7 5 5 5 12 13 11 9 6 4 6 13 10 6 8 8 8 13 11 6 8 4 6 4 6 5 5 4 4 12 15 13 11 14 11 11 10 11 12 7 8 11 12 11 12 12
9 7 8 8 7 6 6 5 5 8 8 7 8 7 7 8 7 7 5 6 6 5 9 10 4 5 3 4 5 7 4 8 9 10 11 8 6 6 6 5 5 6 5 6 5 4 8 13 11 11 9 8 9 10 8 8 8 5 8 13 14 15 12
6 6 7 7 7 6 5 5 5 6 7 5 4 8 7 11 8 7 9 7 5 10 10 9 6 7 4 5 5 5 4 8 7 8 10 12 10 9 7 6 8 8 6 7 5 4 7 7 11 13 9 11 10 5 6 9 9 8 7 9 10 15 14
5 7 8 7 8 6 7 6 6 6 6 7 5 5 6 7 7 9 7 8 7 6 7 8 5 7 6 6 6 6 6 8 9 7 8 10 12 10 8 9 9 8 6 9 7 4 6 7 10 11 12 16 13 8 8 9 11 13 13 8 11 12 13
4 7 8 8 9 9 7 7 5 5 7 6 6 7 7 8 6 7 7 7 8 5 5 4 5 8 7 7 6 5 8 11 8 8 6 8 9 11 12 10 10 13 12 6 8 5 7 7 7 12 14 17 15 13 11 5 8 10 11 13 13 10 12
5 7 7 7 6 7 6 6 6 6 6 6 7 8 6 6 6 5 8 7 7 7 6 5 5 9 8 8 8 8 8 10 9 6 7 7 9 9 9 13 13 15 11 10 9 8 8 9 6 16 16 15 12 13 14 12 13 12 10 10 12 11 12
7 5 6 7 6 6 6 5 5 6 6 7 8 7 5 7 9 11 8 7 6 7 6 6 6 6 8 12 10 10 9 10 12 10 8 7 7 6 9 13 18 19 17 16 15 12 10 13 12 7 15 14 12 16 16 14 13 14 11 11 11 12 11
11 8 7 6 5 6 4 5 4 5 7 7 10 7 8 7 6 6 7 8 9 6 4 3 5 7 10 11 10 8 8 10 11 8 7 7 7 6 5 4 6 10 17 21 19 20 22 15 7 10 13 14 11 10 12 14 14 11 12 10 12 12 11
12 10 9 5 5 4 4 4 4 5 8 10 8 7 6 7 8 8 8 7 5 5 4 4 5 8 7 7 6 6 8 11 9 11 10 8 6 4 4 6 8 8 8 11 10 9 8 4 6 10 10 8 10 9 9 11 9 12 10 13 11 11 11
11 10 12 6 5 4 4 5 4 8 10 9 9 7 8 7 6 7 8 7 6 5 6 6 7 6 7 7 8 9 10 10 11 12 8 8 7 5 7 8 7 8 8 8 9 8 8 7 6 5 3 4 5 11 10 10 8 9 9 10 13 9 10
4 10 10 9 6 5 5 4 6 8 9 9 8 8 8 8 7 8 6 6 5 4 4 4 6 7 6 6 7 7 6 6 7 7 7 7 6 5 10 13 12 11 9 7 8 7 8 8 9 8 11 9 13 7 9 13 11 7 7 8 10 13 8
6 11 10 9 6 6 7 6 6 7 9 8 9 8 7 8 7 7 7 6 5 6 5 5 3 6 7 6 6 6 5 7 8 8 7 7 8 7 8 10 9 8 5 5 5 5 6 3 3 10 10 12 10 11 16 17 14 7 6 9 7 9 8
5 11 10 9 7 7 8 7 8 8 8 8 8 8 7 8 8 7 6 6 6 6 6 4 5 5 4 5 5 7 6 8 11 9 9 9 13 9 9 9 7 7 6 8 8 7 8 10 10 8 7 8 10 13 15 15 15 10 8 6 5 6 7
9 10 9 6 5 6 8 7 7 6 7 6 7 6 7 8 9 7 8 8 8 5 4 4 4 4 4 5 5 6 7 9 11 9 8 9 9 9 11 11 8 8 8 6 7 6 7 6 7 7 7 9 10 7 12 14 13 9 6 2 3 9 7
9 11 10 8 6 7 9 8 8 8 7 7 7 7 9 7 8 8 8 10 7 8 7 6 5 4 6 5 4 4 6 8 10 10 6 9 9 9 6 9 10 8 6 8 6 11 10 10 12 11 9 7 9 10 9 9 12 11 8 3 6 8 5
10 6 9 7 7 10 9 9 9 8 7 8 6 7 7 7 9 9 9 8 9 7 8 7 4 6 6 6 6 4 7 8 6 7 8 8 11 8 8 8 8 5 6 6 5 8 10 15 12 18 12 12 11 10 11 11 8 10 10 7 7 7 6
11 7 7 7 8 9 9 9 9 9 9 7 10 5 8 9 9 7 8 9 9 8 8 6 7 9 11 8 7 7 8 7 6 5 6 8 11 6 7 6 6 4 4 6 6 5 6 4 9 10 10 6 6 6 8 4 7 4 9 11 2 8 8
10 8 7 8 10 9 8 9 9 11 8 8 9 7 8 8 8 10 8 11 11 10 9 9 9 8 7 6 7 6 7 7 5 5 4 8 6 6 7 6 6 5 2 4 3 2 3 7 7 6 4 10 10 5 5 8 6 5 7 5 6 5 2
15 16 14 11 10 9 8 9 9 8 11 11 8 6 9 9 11 11 12 12 12 12 11 9 10 10 11 8 6 6 7 6 5 5 4 5 6 6 5 6 6 5 3 4 3 4 4 3 5 7 8 11 10 5 6 3 3 8 5 7 3 5 6
13 11 11 11 10 8 7 6 9 10 9 10 9 8 8 9 6 9 12 11 13 13 14 13 10 9 10 10 8 8 7 7 5 4 6 6 6 5 4 6 7 5 3 2 2 5 5 6 7 9 9 5 3 9 2 5 3 5 3 3 5 3 6
10 12 10 11 11 10 9 8 8 6 8 9 9 10 10 10 7 10 9 10 11 11 11 13 13 13 12 9 9 8 6 7 8 6 6 6 6 7 4 4 6 6 4 3 8 5 3 3 4 5 4 4 4 4 2 2 2 4 3 3 4 2 2
7 9 9 7 9 7 7 6 5 8 6 8 7 9 9 11 11 12 11 9 10 9 10 11 13 12 11 12 11 10 9 10 8 9 8 8 8 8 8 6 13 15 10 13 13 11 10 8 6 3 7 5 3 2 3 4 4 2 3 4 6 4 6
9 8 9 8 9 11 10 7 8 8 7 5 6 6 7 7 10 10 12 12 8 6 7 8 6 12 6 11 10 12 10 10 11 10 10 9 6 8 8 15 11 10 11 9 14 13 12 11 9 8 8 9 3 3 2 4 4 4 3 5 7 7 9
8 9 10 8 7 7 9 6 4 6 5 10 11 7 7 11 11 9 11 9 6 3 9 18 13 7 6 5 10 8 9 10 9 11 11 9 8 12 14 10 8 10 10 8 10 13 13 11 9 8 8 9 9 6 2 3 3 3 3 3 4 7 8
7 8 7 7 7 7 8 8 7 6 4 7 8 10 6 6 7 8 11 15 17 22 20 22 25 19 8 3 2 6 7 10 9 9 11 12 14 12 11 9 6 6 8 9 9 9 9 9 9 9 7 8 8 11 9 8 5 6 8 7 5 4 4
9 7 7 6 5 6 8 8 8 8 7 9 9 9 6 5 7 7 7 6 7 10 12 7 15 20 16 10 4 3 9 9 10 9 9 11 11 16 8 7 8 7 6 7 7 8 9 10 8 8 9 8 7 7 8 9 6 5 4 5 4 4 8
8 7 8 6 5 7 8 9 8 10 11 11 11 10 9 8 7 6 8 9 6 8 11 13 18 18 15 13 7 3 7 5 8 10 8 10 15 20 15 11 8 8 8 10 9 9 9 11 10 9 6 5 6 6 5 7 7 5 3 3 3 4 6
11 10 6 4 5 7 7 7 8 8 13 13 12 12 11 10 8 9 11 9 8 11 10 10 16 16 16 16 10 3 8 8 5 8 14 20 13 20 18 16 14 12 12 10 12 12 11 12 12 11 9 7 7 7 3 4 6 5 5 7 9 10 11
10 10 9 6 6 6 4 6 8 7 8 9 10 10 8 10 12 14 13 12 12 14 9 11 14 15 15 14 11 10 11 10 7 9 16 14 11 13 15 15 14 13 13 12 13 16 11 15 14 12 11 10 8 9 10 4 3 8 11 10 9 9 8
16 14 11 10 9 7 6 5 5 6 8 9 10 11 13 13 14 14 13 14 16 14 21 23 25 18 16 15 9 12 13 13 7 8 7 10 11 8 11 14 13 13 13 12 11 14 15 13 11 11 11 10 10 10 8 6 6 9 10 11 10 9 8
16 13 13 13 12 11 9 8 9 7 7 9 11 11 12 14 15 16 15 15 15 14 15 20 26 22 19 18 14 16 14 16 9 10 12 8 5 8 7 6 5 9 14 12 14 17 17 13 11 12 12 12 12 10 9 8 7 6 7 8 7 6 5
14 13 13 13 11 12 10 10 10 10 9 10 10 11 13 14 12 13 14 15 11 13 13 12 18 19 21 19 19 15 15 16 11 10 9 10 10 8 6 8 6 12 13 14 15 15 11 7 6 12 12 13 12 11 12 11 9 9 6 4 3 3 4
12 12 13 13 12 12 11 11 11 12 12 15 15 14 13 14 12 12 11 15 18 17 13 11 15 18 18 18 19 20 16 18 12 12 10 13 13 9 10 11 11 14 17 14 12 12 9 6 8 11 13 11 9 11 15 10 7 7 9 7 4 9 9
14 14 14 13 13 12 13 13 12 12 13 14 13 13 13 13 12 9 10 11 14 14 14 15 14 17 18 19 20 17 17 15 11 14 13 11 13 14 14 11 10 9 16 15 15 15 15 14 11 11 14 14 8 7 10 9 7 6 2 1 3 4 5
15 15 15 15 14 15 13 14 15 15 17 14 15 15 14 14 14 12 10 12 11 11 12 16 15 16 18 19 18 20 17 13 13 14 12 15 14 15 13 13 13 10 16 16 17 17 17 15 14 15 14 11 11 14 10 7 8 7 6 5 4 6 7
18 18 16 16 16 16 16 16 15 15 16 17 16 17 15 15 14 14 8 4 7 12 11 11 9 14 18 18 18 18 14 9 14 19 18 16 15 14 14 14 13 14 17 17 17 17 17 17 12 12 11 13 11 6 4 2 3 3 1 3 4 5 7
20 19 18 18 17 18 18 17 17 18 17 18 18 17 17 16 16 16 13 8 7 11 10 11 9 9 14 13 12 11 14 16 16 16 15 15 13 19 18 14 13 15 17 17 16 15 15 13 14 10 10 9 6 2 2 2 5 4 2 2 2 6 8

ECMWFFLT1_sfc_gust_033.txt.gz
Wind_Gust
10 8 9 9 8 10 11 7 7 6 5 7 7 6 5 4 6 9 9 8 8 5 7 8 7 6 6 4 9 5 8 9 9 12 8 7 9 8 3 6 6 7 5 9 7 11 18 18 11 7 5 4 4 4 7 8 10 14 14 14 16 14 12
7 11 9 9 10 9 10 6 8 8 7 5 6 6 3 4 5 7 6 6 5 10 6 5 4 6 5 10 10 2 7 6 7 8 11 9 7 9 7 3 8 8 8 8 8 8 14 18 8 9 10 5 8 6 7 8 10 12 14 14 13 13 12
9 10 10 9 8 7 6 6 8 8 7 9 7 6 7 9 6 5 7 6 6 9 8 6 10 9 9 7 7 7 9 9 6 9 11 10 9 9 7 7 7 6 7 9 8 11 11 7 18 12 7 13 11 5 6 11 12 11 13 14 13 14 13
11 12 11 9 7 5 9 7 8 8 7 6 8 6 6 7 6 5 5 5 6 6 6 7 6 12 11 9 12 10 8 9 7 7 9 9 10 8 8 10 9 10 12 11 11 8 9 11 12 10 7 8 13 11 5 7 12 12 13 12 13 12 12
14 14 13 11 8 7 7 7 7 9 7 7 7 8 7 5 6 7 6 8 9 8 7 5 6 6 5 6 9 9 8 7 8 9 10 11 9 9 8 9 10 9 6 9 10 10 15 15 14 13 12 10 7 5 5 4 8 13 13 13 12 12 11
16 15 13 12 9 11 9 8 10 10 9 8 8 8 2 2 3 4 6 8 7 7 7 7 8 6 6 6 7 7 8 7 8 10 11 9 11 12 11 8 11 10 9 7 9 14 15 10 13 14 10 9 11 10 7 8 10 6 9 12 12 11 12
15 14 13 13 12 12 11 12 10 11 10 11 9 7 3 8 8 6 5 6 5 5 6 6 6 5 6 8 7 8 8 8 6 8 10 8 8 8 8 9 9 9 9 10 10 12 11 12 13 13 13 9 7 11 10 7 9 13 8 11 11 11 11
13 12 11 10 11 10 9 9 9 10 13 10 10 8 8 6 6 8 9 7 6 5 6 8 10 7 6 6 6 7 7 7 6 5 7 8 10 10 7 8 8 8 8 8 8 7 9 11 12 12 15 16 8 6 7 7 6 7 12 6 10 10 10
11 11 8 8 9 10 8 9 11 12 12 11 9 9 8 10 9 8 7 6 3 5 6 6 7 7 6 6 6 6 7 7 10 7 6 8 9 10 9 7 7 6 7 8 7 8 9 10 10 11 15 16 18 11 7 10 8 8 9 10 5 7 10
11 10 11 9 9 8 9 11 15 13 11 11 9 8 8 7 7 7 8 6 6 5 7 7 8 7 7 9 9 7 7 5 7 6 7 9 7 9 9 9 11 9 7 7 5 6 6 6 7 8 9 19 16 16 14 10 8 11 5 11 9 4 6
9 9 9 9 9 11 11 13 14 13 12 11 10 7 8 9 8 8 7 6 4 4 5 7 7 7 5 6 7 7 6 6 6 6 7 10 11 11 11 11 10 10 7 7 8 7 9 11 12 11 9 8 16 16 13 13 8 4 7 3 6 8 3
8 9 9 9 9 11 13 12 12 13 11 10 12 10 9 9 8 7 7 5 6 7 7 8 9 8 6 5 5 7 6 7 8 7 6 8 7 11 10 9 7 8 7 9 11 12 12 12 11 13 10 11 11 14 16 14 15 5 5 7 5 6 8
7 10 10 11 10 11 11 11 13 12 13 11 11 9 9 9 8 8 6 7 7 6 7 8 10 8 6 3 3 8 7 7 7 7 6 8 11 10 9 8 7 8 6 8 11 11 12 10 12 14 12 13 14 14 13 12 13 8 3 8 7 7 8
7 8 9 9 9 9 9 11 12 12 11 12 11 10 9 9 9 9 9 8 7 6 7 8 7 8 6 5 6 8 7 8 8 5 8 8 7 7 6 6 5 4 5 8 7 8 10 11 12 13 11 13 11 11 16 14 15 9 4 3 7 8 7
6 7 9 7 9 10 9 11 10 10 10 12 10 11 11 10 9 10 8 8 8 7 7 7 6 9 10 8 7 6 6 8 7 6 7 8 7 8 7 8 8 6 7 10 7 8 8 11 13 14 12 13 11 8 7 12 8 10 8 4 4 3 6
4 7 8 7 8 9 9 8 9 9 9 11 9 10 10 10 9 9 8 9 9 7 7 6 7 10 9 7 7 7 8 7 8 11 11 9 9 7 9 8 6 6 8 11 8 8 11 11 7 11 9 11 12 8 7 11 12 8 11 9 8 6 6
7 9 8 7 9 8 9 8 7 8 8 9 8 6 10 10 9 9 10 9 9 8 7 7 8 7 7 7 10 10 8 7 8 9 9 10 10 9 7 7 5 6 7 9 7 9 7 5 7 10 9 8 10 11 8 7 9 10 8 10 6 12 9
6 4 6 7 9 9 9 8 6 7 7 8 6 8 9 8 8 9 12 10 9 9 10 10 9 6 5 6 9 10 8 7 8 9 10 10 9 9 8 6 5 5 6 8 6 8 8 8 6 6 7 7 9 8 8 9 6 7 9 8 10 10 5
5 3 3 6 8 9 9 7 6 5 8 7 5 8 9 6 8 9 10 10 10 10 10 10 10 9 7 7 8 7 7 6 6 10 12 11 11 10 9 7 6 6 6 7 6 7 9 7 7 7 6 6 6 5 7 6 9 7 11 10 10 9 3
21 15 5 6 6 7 8 8 7 5 4 6 5 7 7 6 5 9 9 9 10 11 10 10 11 11 10 9 10 7 7 6 6 9 8 10 11 10 11 10 8 7 8 6 8 9 10 8 9 8 5 4 4 6 6 4 4 5 5 7 4 6 7
12 11 8 6 5 5 6 5 7 6 6 6 5 5 4 5 4 7 9 9 11 12 10 9 10 11 11 12 11 8 10 7 6 7 7 8 9 8 10 11 10 6 8 8 9 8 9 10 9 8 5 5 6 7 4 3 4 5 2 2 2 2 5
4 7 6 5 4 4 3 4 2 5 5 8 7 6 4 3 2 4 3 5 9 9 11 10 10 11 11 9 9 10 11 10 8 8 9 7 8 8 7 6 7 6 8 11 11 9 7 7 10 9 3 5 6 8 7 5 5 6 4 7 9 5 7
8 10 5 5 5 3 4 3 2 2 5 2 4 4 5 6 6 6 5 3 4 4 6 6 5 14 13 12 9 9 8 9 8 9 10 8 7 7 9 7 7 11 13 14 14 13 12 11 9 10 9 7 7 8 8 7 6 6 6 7 4 6 9
5 5 7 6 7 4 2 5 4 5 5 6 5 5 7 6 5 6 9 10 8 5 3 5 6 6 6 6 10 11 11 10 7 7 8 9 8 9 7 7 7 10 12 10 13 14 13 11 10 10 9 9 5 7 10 8 6 5 6 4 3 8 9
7 3 2 5 7 9 5 4 2 1 3 6 4 5 7 5 5 4 7 7 7 5 4 3 5 4 6 6 4 7 12 11 10 8 9 8 10 8 8 9 7 8 8 10 11 11 10 11 12 10 10 10 11 10 7 10 9 6 4 6 7 7 10
15 17 16 12 12 11 9 4 4 1 1 3 4 2 1 4 2 4 7 6 4 4 4 7 5 7 5 4 6 6 3 9 12 8 11 16 14 10 7 8 7 6 10 10 11 11 11 10 8 12 12 11 8 10 11 10 8 10 10 10 9 4 4
8 5 6 13 16 16 13 7 4 3 2 1 2 2 3 3 3 3 4 6 6 5 6 7 8 8 7 5 6 5 5 3 3 14 18 15 13 13 11 9 8 8 6 8 9 11 11 11 10 9 8 6 6 6 7 8 8 7 6 8 9 8 4
18 16 12 7 5 4 5 9 9 7 7 6 6 6 6 6 6 6 6 6 7 8 10 9 10 10 9 7 4 5 3 3 9 14 13 12 12 12 11 11 10 11 11 11 11 11 12 11 10 8 7 5 5 5 5 5 4 5 8 9 12 12 10
16 15 15 15 14 11 9 7 4 7 6 6 6 5 5 8 9 8 7 7 8 9 11 13 13 13 11 9 6 5 5 6 9 11 16 13 13 13 11 11 12 13 11 11 11 14 12 13 11 10 8 6 6 6 6 3 4 5 10 12 12 13 10
14 14 14 12 10 11 11 11 9 5 3 5 8 8 9 8 10 10 9 10 10 11 11 13 13 14 12 9 5 6 5 7 7 10 12 12 11 12 13 13 12 12 12 13 12 15 15 14 11 11 10 9 9 9 8 5 7 9 12 14 13 13 12
12 12 12 12 12 11 10 10 11 9 7 5 5 7 10 9 8 9 10 12 14 12 14 13 16 15 15 13 10 10 9 8 8 10 10 11 11 10 11 10 10 14 13 13 13 16 16 16 13 12 12 12 12 10 7 7 8 7 7 11 11 10 9
12 12 11 11 11 12 12 11 10 12 12 11 9 8 6 10 12 12 13 14 13 16 14 14 16 19 18 15 12 10 10 9 9 9 11 11 10 11 10 10 13 11 11 10 13 16 17 14 13 13 14 15 14 12 13 11 11 9 5 5 5 5 3
16 15 16 15 13 11 11 14 14 13 13 12 13 12 12 8 7 10 11 14 15 16 15 15 16 19 19 16 16 14 9 11 13 12 12 13 12 9 12 12 9 7 9 9 11 15 16 12 11 11 12 14 14 13 11 9 7 9 6 6 6 4 2
17 18 17 16 15 15 14 15 14 13 13 13 12 13 13 12 11 11 8 12 15 14 15 15 16 18 19 18 15 14 13 16 14 13 13 13 14 14 11 8 6 11 17 15 15 15 12 8 7 10 12 14 14 12 13 10 9 9 7 6 5 4 3
12 14 15 16 17 17 16 16 15 14 14 12 13 13 10 11 12 12 14 9 13 15 15 17 16 15 15 15 15 18 16 15 13 13 13 14 14 14 13 11 11 13 17 17 16 16 15 14 14 13 11 11 17 19 15 11 10 8 8 5 6 6 3
10 11 12 13 14 15 14 15 15 14 13 14 13 14 14 14 13 15 14 14 12 13 14 15 16 13 14 17 18 18 18 14 8 16 18 16 13 11 12 13 11 11 15 17 16 17 17 17 13 13 14 18 17 17 13 10 10 9 7 7 8 6 2
13 12 11 12 11 12 13 14 14 14 14 14 14 14 12 11 11 11 13 15 14 11 12 15 15 17 14 16 14 16 16 13 6 7 9 15 13 16 16 13 14 15 17 19 19 17 16 14 16 14 15 16 15 12 11 11 10 10 8 8 6 3 7

ECMWFFLT1_sfc_gust_036.txt.gz
Wind_Gust
14 12 12 10 8 8 10 6 6 6 6 6 7 5 5 5 5 5 5 5 6 6 5 5 6 4 6 4 6 7 7 7 8 12 11 10 13 9 2 6 7 10 7 5 6 13 15 16 6 6 3 4 4 4 6 9 11 12 12 10 11 10 10
12 12 11 11 11 9 9 6 8 6 7 5 5 6 5 5 5 6 6 6 6 5 5 4 3 5 6 6 7 7 8 7 5 5 12 12 10 10 7 5 9 10 8 7 7 5 15 16 5 5 5 5 7 6 9 10 10 10 11 11 11 10 10
12 11 12 13 11 9 10 8 8 9 7 9 8 6 7 6 6 7 6 6 8 7 5 6 5 5 5 6 8 8 7 6 4 7 10 10 9 9 7 9 10 9 10 10 5 9 9 5 19 14 9 12 12 6 9 11 11 10 10 11 10 10 10
13 14 14 11 10 9 12 9 9 9 8 9 8 6 6 7 8 8 8 7 5 6 8 8 8 8 6 7 8 8 8 9 8 7 5 6 9 10 7 9 12 17 19 18 14 10 10 11 13 11 8 8 15 15 6 11 12 9 11 10 12 10 10
14 15 16 14 12 12 12 11 8 10 8 8 7 7 6 7 9 9 7 7 7 6 6 7 6 4 4 4 7 8 9 7 7 9 7 8 7 9 9 9 8 6 6 13 14 10 15 17 19 16 13 13 10 9 9 7 5 8 9 10 9 11 9
12 13 13 11 9 13 12 11 10 10 9 9 7 8 4 6 7 8 8 9 7 6 7 7 7 5 3 4 4 6 8 9 9 10 11 10 11 12 11 9 9 8 8 8 12 13 10 12 15 17 8 7 17 15 10 9 9 5 4 7 9 8 9
12 12 11 12 9 10 11 12 12 12 11 9 6 5 4 5 6 5 6 6 5 6 6 6 6 6 6 8 7 6 6 6 7 7 7 5 5 4 5 9 7 8 8 9 12 14 14 15 13 16 14 9 9 15 9 6 8 10 4 4 3 6 7
10 11 10 10 10 9 8 11 9 10 12 9 9 5 5 8 6 6 6 7 6 6 6 7 8 6 5 5 4 4 5 5 6 6 4 6 6 4 4 5 6 8 8 8 12 12 13 15 17 17 17 17 9 6 7 6 4 4 9 3 3 2 5
8 8 8 7 7 8 8 10 10 10 10 10 7 8 6 8 7 7 6 5 4 6 7 7 7 7 6 7 5 4 4 4 7 5 4 5 5 5 5 4 6 6 5 8 8 11 12 10 11 10 16 20 21 11 6 8 5 4 3 5 2 2 5
9 9 10 7 7 6 9 10 12 10 9 10 9 8 9 6 7 7 6 6 6 6 6 6 7 6 6 6 6 5 5 4 5 3 4 5 3 7 6 7 8 8 7 5 5 6 7 6 9 9 7 17 16 20 12 8 7 9 7 4 7 6 6
9 7 7 8 8 11 10 11 11 10 9 8 10 8 9 8 7 8 8 6 5 6 7 6 7 7 7 7 5 5 3 4 7 5 5 8 7 5 5 5 5 8 6 6 8 6 7 10 9 10 9 4 15 21 15 15 11 7 8 3 4 8 5
7 8 8 9 9 12 11 10 10 10 8 7 10 9 9 8 7 7 7 4 6 6 6 7 6 7 7 7 5 7 4 8 10 8 5 8 5 8 7 7 5 7 6 7 6 6 6 9 11 12 11 8 5 15 17 15 14 8 8 8 4 4 10
8 10 10 12 11 12 10 10 10 8 8 7 8 8 8 7 7 7 5 5 5 5 6 6 7 6 7 7 7 8 5 7 8 8 6 5 7 8 9 8 6 8 8 10 8 7 5 4 9 11 11 10 6 10 12 12 15 13 9 10 9 7 9
9 11 10 11 12 11 10 9 8 8 7 7 8 8 7 7 6 6 5 5 5 6 6 5 4 6 6 6 5 7 5 8 9 6 8 7 6 8 8 7 6 6 6 12 8 7 9 9 9 10 11 12 10 10 14 11 14 9 4 3 7 11 7
10 9 12 11 13 12 11 10 9 7 8 6 7 8 8 6 6 6 6 4 3 5 5 4 3 6 6 6 4 4 6 7 7 6 7 7 6 7 7 8 7 6 6 11 10 10 11 10 12 12 12 14 13 10 10 12 7 10 9 3 4 3 8
11 10 11 11 12 12 11 10 9 10 9 7 5 8 8 8 8 7 6 5 3 4 4 4 4 5 6 7 6 4 4 5 6 7 8 8 8 7 8 8 7 7 8 11 8 8 8 9 9 13 11 12 12 9 5 10 12 7 11 8 6 8 7
24 15 10 10 11 10 12 10 8 10 9 7 8 5 7 9 7 7 8 6 6 4 3 4 6 6 7 6 6 5 3 4 5 6 8 8 8 9 9 8 7 7 9 12 9 9 7 7 10 10 9 7 11 10 7 6 8 11 7 12 7 12 11
20 15 17 9 9 9 9 11 9 10 9 8 7 7 6 6 8 8 9 8 7 5 5 6 7 6 5 6 8 6 6 6 7 7 7 7 7 7 7 8 7 7 8 12 7 9 8 8 9 11 10 10 10 10 8 9 8 9 12 12 12 8 4
9 15 17 11 7 8 8 9 9 8 10 9 7 8 10 6 10 9 9 9 8 7 7 7 7 6 6 6 8 8 8 7 7 7 6 6 5 5 6 5 4 5 7 10 7 6 7 8 8 10 10 10 10 10 9 6 8 10 12 13 12 10 3
11 11 12 12 15 12 6 7 8 8 8 7 8 7 8 9 8 11 10 9 9 10 8 6 6 5 5 6 7 8 7 7 7 7 7 7 6 5 6 5 4 5 7 7 8 8 8 7 9 8 10 10 9 10 9 8 8 10 11 11 7 7 8
5 8 7 9 9 8 12 11 8 6 5 6 7 9 9 8 9 8 11 10 10 10 9 7 5 5 5 5 6 6 6 7 7 7 6 8 8 8 7 7 7 7 9 9 10 8 10 11 8 8 6 8 9 10 10 8 8 9 9 8 11 10 6
10 11 9 6 8 7 7 11 11 5 4 5 7 7 6 6 7 6 6 8 10 8 10 12 10 9 7 5 5 7 7 7 8 9 8 9 8 9 8 9 9 8 10 11 11 10 9 9 12 10 5 7 8 10 7 8 9 10 9 10 5 3 7
10 9 14 14 9 9 13 11 7 6 3 1 1 2 5 3 5 6 7 6 7 7 9 9 12 15 11 12 8 8 6 6 7 8 9 9 7 6 9 7 7 9 11 11 10 10 9 7 5 8 12 11 10 9 9 9 9 10 10 10 10 9 7
11 10 14 11 8 7 11 16 13 7 4 5 4 3 2 3 3 5 6 7 9 10 7 6 8 14 16 17 13 10 10 9 6 6 6 8 9 7 6 5 3 5 9 9 11 13 13 12 10 8 6 6 7 13 12 8 8 9 11 9 7 8 10
7 5 4 4 7 8 9 7 11 13 8 4 5 5 6 4 5 4 5 4 7 9 8 6 7 11 13 14 12 14 12 12 10 9 9 9 10 9 7 6 6 8 10 12 11 10 10 12 12 10 8 8 7 4 4 12 11 7 8 10 8 9 12
6 4 5 2 2 2 3 9 14 9 7 6 3 6 3 4 3 2 4 4 4 4 4 8 8 9 9 8 11 10 10 11 12 11 10 12 11 11 8 10 11 9 10 10 11 11 12 9 7 9 9 8 7 7 6 5 5 11 13 13 13 8 9
11 10 7 5 4 4 4 4 4 8 13 5 5 6 2 5 5 3 3 4 5 4 5 7 10 10 10 8 8 8 8 9 9 9 12 14 12 12 14 14 13 12 8 9 9 10 9 10 10 9 6 4 4 5 6 7 9 8 7 13 15 14 6
10 10 10 9 10 11 11 11 9 8 12 11 7 8 11 8 6 6 5 5 5 7 9 8 9 10 10 11 9 5 5 4 8 11 11 12 15 15 15 16 15 17 14 12 13 13 13 13 11 10 8 6 5 4 4 4 3 4 7 7 10 12 12
16 15 12 12 14 13 11 10 12 11 11 10 9 7 6 3 4 6 8 6 7 9 11 11 10 10 9 9 9 7 6 6 7 10 11 11 11 7 9 16 17 15 15 14 14 17 15 15 14 13 11 8 6 5 5 4 7 7 5 11 13 15 14
17 17 16 17 16 15 15 14 12 12 12 12 11 11 9 8 8 7 6 6 8 11 11 13 12 12 11 11 7 8 7 8 8 9 12 11 8 10 16 11 15 17 13 12 12 15 15 13 12 13 12 10 8 7 5 5 10 10 10 14 14 15 15
17 17 17 17 16 15 14 11 13 13 12 11 12 10 8 8 8 7 6 9 12 12 14 14 14 14 15 13 12 11 10 10 8 10 10 11 9 15 18 17 19 17 20 23 15 17 16 17 16 16 14 14 12 10 6 5 10 12 13 11 11 11 12
14 14 15 15 15 16 15 14 12 10 11 11 11 9 7 8 8 5 6 10 9 12 14 14 14 15 17 14 14 10 10 10 10 11 12 14 12 12 13 14 20 19 18 19 18 18 20 18 14 16 18 16 16 14 16 15 16 15 12 9 5 8 6
14 14 15 14 15 15 15 17 18 16 15 13 14 13 11 10 10 12 9 8 8 10 13 16 16 15 16 16 15 13 9 10 13 14 13 14 15 13 14 15 15 18 18 16 16 19 21 21 20 17 16 18 18 18 14 14 14 17 14 12 11 6 7
11 11 11 11 11 12 13 14 14 15 16 17 16 17 17 16 15 14 12 9 9 10 12 15 19 20 19 17 15 13 12 15 14 14 13 13 14 16 16 17 16 14 17 17 17 20 23 23 18 20 20 21 23 18 17 13 13 10 14 11 10 8 10
10 10 9 9 9 8 8 8 9 10 12 12 13 14 14 15 15 16 16 15 10 11 12 15 17 19 21 21 15 17 14 16 16 12 11 13 13 14 17 17 17 16 17 20 19 18 21 23 22 18 21 16 14 22 26 17 13 11 11 11 10 10 10
12 11 12 11 10 10 9 9 9 9 9 9 9 9 10 12 13 15 16 15 14 13 13 15 16 19 21 23 21 16 18 14 8 12 14 15 16 18 14 13 13 10 10 8 12 20 19 16 11 11 14 17 19 21 17 16 14 13 12 11 12 13 11
11 10 12 12 11 11 12 12 11 11 10 9 10 11 12 12 12 12 13 15 16 16 14 14 14 18 21 22 20 14 12 12 9 10 11 14 13 12 12 13 12 12 14 16 18 18 18 17 16 18 21 21 22 17 16 15 13 14 12 12 13 13 12